AUA2PJ EGLL-LOWW

Flight info

Callsign AUA2PJ
Flight time 1h 41m
Altitude 37000
Route DET1J DET L6 DVR UL9 KONAN DCT KOK DCT MATUG DCT GUBAX DCT BARSU DCT EKSOS DCT LULAR DCT RUDAP DCT BUDEX BUDEX2W
Aircraft A320/M-SDE3FGHIRWY/LB1

Departure

Time 2026-04-24 19:12
Airport London Heathrow Airport (EGLL)

Arrival

Time 2026-04-24 20:53
Airport Vienna International Airport (LOWW)
Time Latitude Longitude Altitude Speed Heading
2026-04-24 18:54 51.46848 -0.47516 86 ft 0 kts 270°
2026-04-24 18:59 51.46848 -0.47480 88 ft 4 kts 270°
2026-04-24 19:00 51.46848 -0.47437 89 ft 4 kts 270°
2026-04-24 19:00 51.46848 -0.47402 86 ft 4 kts 267°
2026-04-24 19:00 51.46855 -0.47365 88 ft 4 kts 218°
2026-04-24 19:00 51.46877 -0.47352 87 ft 3 kts 180°
2026-04-24 19:01 51.46897 -0.47352 86 ft 0 kts 180°
2026-04-24 19:04 51.46880 -0.47352 87 ft 9 kts 179°
2026-04-24 19:05 51.46814 -0.47344 88 ft 9 kts 172°
2026-04-24 19:05 51.46774 -0.47346 87 ft 8 kts 184°
2026-04-24 19:05 51.46736 -0.47350 87 ft 0 kts 184°
2026-04-24 19:05 51.46734 -0.47351 87 ft 0 kts 184°
2026-04-24 19:06 51.46733 -0.47351 87 ft 2 kts 183°
2026-04-24 19:06 51.46677 -0.47356 90 ft 8 kts 195°
2026-04-24 19:06 51.46656 -0.47434 88 ft 12 kts 266°
2026-04-24 19:06 51.46657 -0.47521 86 ft 4 kts 273°
2026-04-24 19:07 51.46657 -0.47550 89 ft 2 kts 270°
2026-04-24 19:07 51.46656 -0.47660 88 ft 7 kts 268°
2026-04-24 19:07 51.46654 -0.47708 86 ft 6 kts 267°
2026-04-24 19:07 51.46654 -0.47796 86 ft 11 kts 270°
2026-04-24 19:08 51.46653 -0.47897 86 ft 13 kts 270°
2026-04-24 19:08 51.46653 -0.48031 86 ft 9 kts 270°
2026-04-24 19:08 51.46653 -0.48047 86 ft 0 kts 269°
2026-04-24 19:08 51.46653 -0.48096 86 ft 9 kts 269°
2026-04-24 19:09 51.46635 -0.48201 88 ft 6 kts 215°
2026-04-24 19:09 51.46619 -0.48210 89 ft 0 kts 190°
2026-04-24 19:09 51.46606 -0.48212 88 ft 0 kts 183°
2026-04-24 19:10 51.46605 -0.48212 88 ft 1 kts 183°
2026-04-24 19:10 51.46549 -0.48214 87 ft 10 kts 180°
2026-04-24 19:10 51.46495 -0.48203 90 ft 6 kts 152°
2026-04-24 19:10 51.46485 -0.48189 92 ft 5 kts 138°
2026-04-24 19:11 51.46479 -0.48133 88 ft 0 kts 90°
2026-04-24 19:11 51.46479 -0.48101 87 ft 16 kts 90°
2026-04-24 19:11 51.46479 -0.47494 85 ft 88 kts 90°
2026-04-24 19:12 51.46483 -0.46197 87 ft 142 kts 90°
2026-04-24 19:12 51.46493 -0.44420 300 ft 169 kts 90°
2026-04-24 19:12 51.46514 -0.42516 1013 ft 173 kts 91°
2026-04-24 19:12 51.46130 -0.40693 1684 ft 180 kts 126°
2026-04-24 19:13 51.45602 -0.39644 2062 ft 187 kts 125°
2026-04-24 19:13 51.44571 -0.37149 2524 ft 215 kts 120°
2026-04-24 19:13 51.43786 -0.34953 2920 ft 239 kts 112°
2026-04-24 19:13 51.43332 -0.32324 3571 ft 251 kts 102°
2026-04-24 19:14 51.42941 -0.29576 4482 ft 255 kts 103°
2026-04-24 19:14 51.42545 -0.26782 5350 ft 259 kts 103°
2026-04-24 19:14 51.42155 -0.23935 6150 ft 265 kts 103°
2026-04-24 19:14 51.41760 -0.21014 6929 ft 271 kts 102°
2026-04-24 19:15 51.41358 -0.18030 7690 ft 277 kts 103°
2026-04-24 19:15 51.40946 -0.14992 8483 ft 281 kts 103°
2026-04-24 19:15 51.40525 -0.11904 9270 ft 286 kts 102°
2026-04-24 19:15 51.40095 -0.08765 10052 ft 291 kts 102°
2026-04-24 19:16 51.39176 -0.02144 10854 ft 326 kts 103°
2026-04-24 19:16 51.38660 0.01527 11066 ft 349 kts 103°
2026-04-24 19:16 51.38120 0.05382 11575 ft 358 kts 103°
2026-04-24 19:17 51.37572 0.09293 12251 ft 362 kts 103°
2026-04-24 19:17 51.37017 0.13251 12929 ft 366 kts 103°
2026-04-24 19:17 51.36455 0.17245 13628 ft 370 kts 104°
2026-04-24 19:17 51.35888 0.21277 14297 ft 373 kts 103°
2026-04-24 19:18 51.35315 0.25348 14871 ft 377 kts 104°
2026-04-24 19:18 51.34732 0.29472 15187 ft 382 kts 104°
2026-04-24 19:18 51.34147 0.33593 15257 ft 375 kts 104°
2026-04-24 19:18 51.33561 0.37715 15274 ft 390 kts 104°
2026-04-24 19:19 51.32938 0.42050 15266 ft 410 kts 104°
2026-04-24 19:19 51.32283 0.46594 15350 ft 425 kts 104°
2026-04-24 19:19 51.31634 0.51113 16482 ft 408 kts 104°
2026-04-24 19:19 51.31027 0.55496 17454 ft 403 kts 102°
2026-04-24 19:20 51.30525 0.59912 18065 ft 405 kts 100°
2026-04-24 19:20 51.30103 0.64390 18589 ft 410 kts 99°
2026-04-24 19:20 51.29722 0.68924 19026 ft 414 kts 98°
2026-04-24 19:20 51.29341 0.73507 19458 ft 418 kts 98°
2026-04-24 19:21 51.28943 0.78120 19913 ft 421 kts 99°
2026-04-24 19:21 51.28519 0.82771 20356 ft 425 kts 99°
2026-04-24 19:21 51.28074 0.87465 20791 ft 429 kts 99°
2026-04-24 19:21 51.27617 0.92187 21221 ft 432 kts 99°
2026-04-24 19:22 51.27308 0.95337 21498 ft 435 kts 99°
2026-04-24 19:22 51.26673 1.01748 22068 ft 440 kts 99°
2026-04-24 19:22 51.26191 1.06591 22487 ft 443 kts 99°
2026-04-24 19:22 51.25706 1.11466 22895 ft 447 kts 99°
2026-04-24 19:23 51.25218 1.16382 23302 ft 450 kts 99°
2026-04-24 19:23 51.24724 1.21339 23705 ft 454 kts 99°
2026-04-24 19:23 51.24226 1.26330 24058 ft 457 kts 99°
2026-04-24 19:23 51.23722 1.31345 24406 ft 459 kts 99°
2026-04-24 19:24 51.23213 1.36391 24750 ft 461 kts 99°
2026-04-24 19:24 51.22701 1.41455 25093 ft 463 kts 99°
2026-04-24 19:24 51.22186 1.46541 25443 ft 465 kts 99°
2026-04-24 19:24 51.21666 1.51645 25788 ft 467 kts 99°
2026-04-24 19:25 51.21142 1.56766 26128 ft 469 kts 99°
2026-04-24 19:25 51.20613 1.61911 26459 ft 471 kts 99°
2026-04-24 19:25 51.20083 1.67080 26798 ft 473 kts 99°
2026-04-24 19:25 51.19546 1.72263 27119 ft 475 kts 99°
2026-04-24 19:26 51.19002 1.77469 27437 ft 477 kts 100°
2026-04-24 19:26 51.18450 1.82698 27743 ft 479 kts 100°
2026-04-24 19:26 51.17898 1.87942 28054 ft 481 kts 99°
2026-04-24 19:26 51.17343 1.93204 28354 ft 483 kts 100°
2026-04-24 19:27 51.16782 1.98490 28653 ft 484 kts 100°
2026-04-24 19:27 51.16216 2.03789 28935 ft 486 kts 100°
2026-04-24 19:27 51.15644 2.09109 29212 ft 488 kts 100°
2026-04-24 19:27 51.15067 2.14443 29483 ft 490 kts 100°
2026-04-24 19:28 51.14487 2.19780 29849 ft 489 kts 100°
2026-04-24 19:28 51.13901 2.25154 30259 ft 488 kts 100°
2026-04-24 19:28 51.13322 2.30433 30599 ft 487 kts 100°
2026-04-24 19:28 51.12739 2.35743 30913 ft 487 kts 100°
2026-04-24 19:29 51.11576 2.46335 31586 ft 485 kts 100°
2026-04-24 19:29 51.10994 2.51621 31915 ft 484 kts 100°
2026-04-24 19:29 51.10410 2.56889 32239 ft 483 kts 101°
2026-04-24 19:30 51.09819 2.62153 32567 ft 483 kts 101°
2026-04-24 19:30 51.09178 2.67399 32882 ft 482 kts 103°
2026-04-24 19:30 51.08426 2.72585 33205 ft 481 kts 105°
2026-04-24 19:30 51.07580 2.77731 33528 ft 480 kts 106°
2026-04-24 19:31 51.06679 2.82840 33849 ft 480 kts 107°
2026-04-24 19:31 51.05776 2.87870 34190 ft 479 kts 107°
2026-04-24 19:31 51.04877 2.92957 34495 ft 478 kts 107°
2026-04-24 19:31 51.04000 2.98039 34772 ft 477 kts 106°
2026-04-24 19:32 51.03144 3.03131 35048 ft 476 kts 106°
2026-04-24 19:32 51.02303 3.08210 35309 ft 476 kts 105°
2026-04-24 19:32 51.01466 3.13287 35560 ft 475 kts 105°
2026-04-24 19:32 51.00624 3.18367 35810 ft 475 kts 105°
2026-04-24 19:33 50.99777 3.23421 36043 ft 474 kts 106°
2026-04-24 19:33 50.98921 3.28471 36272 ft 474 kts 106°
2026-04-24 19:33 50.98056 3.33516 36502 ft 473 kts 106°
2026-04-24 19:33 50.97186 3.38538 36742 ft 472 kts 106°
2026-04-24 19:34 50.96317 3.43554 36959 ft 471 kts 106°
2026-04-24 19:34 50.95454 3.48566 37168 ft 471 kts 106°
2026-04-24 19:34 50.94579 3.53668 37242 ft 474 kts 106°
2026-04-24 19:35 50.92825 3.63840 37245 ft 482 kts 106°
2026-04-24 19:35 50.91027 3.74127 37242 ft 490 kts 106°
2026-04-24 19:36 50.89174 3.84668 37241 ft 499 kts 107°
2026-04-24 19:36 50.87445 3.95322 37225 ft 489 kts 103°
2026-04-24 19:37 50.86147 4.05692 37245 ft 477 kts 101°
2026-04-24 19:37 50.84936 4.15977 37238 ft 475 kts 102°
2026-04-24 19:38 50.83629 4.26206 37248 ft 474 kts 103°
2026-04-24 19:38 50.82253 4.36409 37247 ft 474 kts 103°
2026-04-24 19:39 50.80867 4.46593 37247 ft 474 kts 103°
2026-04-24 19:39 50.79486 4.56801 37247 ft 474 kts 103°
2026-04-24 19:40 50.78115 4.66997 37241 ft 474 kts 103°
2026-04-24 19:40 50.76733 4.77165 37245 ft 473 kts 103°
2026-04-24 19:41 50.75340 4.87299 37250 ft 472 kts 103°
2026-04-24 19:41 50.73937 4.97405 37246 ft 471 kts 103°
2026-04-24 19:42 50.72528 5.07488 37239 ft 470 kts 103°
2026-04-24 19:42 50.71117 5.17554 37235 ft 470 kts 104°
2026-04-24 19:43 50.69693 5.27609 37235 ft 469 kts 104°
2026-04-24 19:43 50.68257 5.37655 37227 ft 470 kts 104°
2026-04-24 19:44 50.66818 5.47691 37225 ft 469 kts 104°
2026-04-24 19:44 50.65378 5.57724 37222 ft 469 kts 104°
2026-04-24 19:45 50.63931 5.67746 37223 ft 469 kts 104°
2026-04-24 19:45 50.62463 5.77775 37209 ft 470 kts 104°
2026-04-24 19:46 50.60985 5.87804 37222 ft 471 kts 104°
2026-04-24 19:46 50.59500 5.97845 37213 ft 471 kts 104°
2026-04-24 19:47 50.58011 6.07885 37218 ft 471 kts 105°
2026-04-24 19:47 50.56505 6.17940 37199 ft 472 kts 105°
2026-04-24 19:48 50.54987 6.28004 37194 ft 473 kts 105°
2026-04-24 19:48 50.52951 6.41418 37207 ft 474 kts 105°
2026-04-24 19:49 50.49858 6.61578 37191 ft 475 kts 105°
2026-04-24 19:50 50.46709 6.81765 37198 ft 476 kts 106°
2026-04-24 19:51 50.44331 6.96909 37204 ft 476 kts 106°
2026-04-24 19:52 50.41936 7.12049 37190 ft 477 kts 106°
2026-04-24 19:52 50.40324 7.22133 37195 ft 477 kts 106°
2026-04-24 19:53 50.38703 7.32216 37201 ft 477 kts 106°
2026-04-24 19:54 50.36254 7.47322 37197 ft 477 kts 107°
2026-04-24 19:54 50.34605 7.57398 37194 ft 478 kts 107°
2026-04-24 19:55 50.33220 7.65840 37190 ft 478 kts 107°
2026-04-24 19:55 50.31292 7.77551 37193 ft 478 kts 107°
2026-04-24 19:56 50.29617 7.87614 37189 ft 478 kts 107°
2026-04-24 19:56 50.27998 7.97703 37179 ft 479 kts 104°
2026-04-24 19:57 50.26783 8.06696 37176 ft 480 kts 103°
2026-04-24 19:57 50.25543 8.16313 37170 ft 480 kts 103°
2026-04-24 19:58 50.24150 8.26507 37167 ft 480 kts 104°
2026-04-24 19:58 50.22709 8.36674 37156 ft 480 kts 104°
2026-04-24 19:59 50.21249 8.46901 37156 ft 480 kts 104°
2026-04-24 19:59 50.19804 8.57021 37203 ft 480 kts 104°
2026-04-24 19:59 50.19065 8.62174 37399 ft 481 kts 104°
2026-04-24 20:00 50.18332 8.67271 37597 ft 480 kts 104°
2026-04-24 20:00 50.17598 8.72349 37790 ft 480 kts 104°
2026-04-24 20:00 50.16862 8.77434 37976 ft 480 kts 104°
2026-04-24 20:00 50.16125 8.82502 38175 ft 480 kts 104°
2026-04-24 20:01 50.15382 8.87582 38359 ft 480 kts 104°
2026-04-24 20:01 50.14639 8.92642 38547 ft 479 kts 104°
2026-04-24 20:01 50.13892 8.97710 38729 ft 479 kts 105°
2026-04-24 20:01 50.13145 9.02773 38895 ft 479 kts 105°
2026-04-24 20:02 50.12651 9.06120 38982 ft 479 kts 104°
2026-04-24 20:02 50.11651 9.12881 39149 ft 479 kts 104°
2026-04-24 20:02 50.10900 9.17940 39172 ft 479 kts 104°
2026-04-24 20:03 50.09391 9.28051 39171 ft 480 kts 104°
2026-04-24 20:03 50.07867 9.38162 39166 ft 480 kts 104°
2026-04-24 20:04 50.06331 9.48276 39164 ft 480 kts 105°
2026-04-24 20:04 50.04798 9.58379 39162 ft 480 kts 105°
2026-04-24 20:05 50.03247 9.68479 39162 ft 481 kts 104°
2026-04-24 20:05 50.01682 9.78592 39160 ft 481 kts 104°
2026-04-24 20:06 50.00118 9.88710 39166 ft 482 kts 105°
2026-04-24 20:06 49.98537 9.98820 39161 ft 482 kts 105°
2026-04-24 20:07 49.97215 10.07354 39177 ft 481 kts 104°
2026-04-24 20:08 49.95614 10.17449 39168 ft 481 kts 105°
2026-04-24 20:08 49.93997 10.27533 39167 ft 481 kts 105°
2026-04-24 20:09 49.92368 10.37615 39171 ft 481 kts 108°
2026-04-24 20:09 49.90013 10.47302 39176 ft 480 kts 114°
2026-04-24 20:10 49.87527 10.56911 39177 ft 480 kts 113°
2026-04-24 20:10 49.85040 10.66519 39189 ft 481 kts 113°
2026-04-24 20:11 49.82545 10.76123 39187 ft 481 kts 113°
2026-04-24 20:11 49.80033 10.85711 39184 ft 481 kts 113°
2026-04-24 20:12 49.77512 10.95294 39161 ft 480 kts 113°
2026-04-24 20:12 49.74987 11.04860 39161 ft 480 kts 113°
2026-04-24 20:13 49.72456 11.14418 39148 ft 480 kts 113°
2026-04-24 20:13 49.69912 11.23963 39149 ft 481 kts 113°
2026-04-24 20:14 49.67361 11.33501 39156 ft 481 kts 113°
2026-04-24 20:14 49.64835 11.43065 39141 ft 481 kts 111°
2026-04-24 20:15 49.62709 11.52862 39135 ft 482 kts 107°
2026-04-24 20:15 49.60803 11.62776 39117 ft 482 kts 107°
2026-04-24 20:16 49.58832 11.72634 39131 ft 481 kts 108°
2026-04-24 20:16 49.56763 11.82432 39135 ft 480 kts 108°
2026-04-24 20:17 49.54686 11.92129 39138 ft 480 kts 108°
2026-04-24 20:17 49.51575 12.06770 39139 ft 479 kts 108°
2026-04-24 20:18 49.49501 12.16510 39140 ft 479 kts 108°
2026-04-24 20:18 49.47404 12.26241 39135 ft 479 kts 108°
2026-04-24 20:19 49.45297 12.35959 39132 ft 479 kts 108°
2026-04-24 20:19 49.43183 12.45673 39131 ft 479 kts 108°
2026-04-24 20:20 49.41079 12.55380 39126 ft 479 kts 108°
2026-04-24 20:20 49.38971 12.65085 39131 ft 479 kts 108°
2026-04-24 20:21 49.36839 12.74771 39129 ft 479 kts 108°
2026-04-24 20:21 49.34604 12.84396 39126 ft 479 kts 110°
2026-04-24 20:22 49.32220 12.93944 39127 ft 479 kts 110°
2026-04-24 20:22 49.29828 13.03468 39127 ft 479 kts 110°
2026-04-24 20:23 49.27470 13.13018 39124 ft 479 kts 110°
2026-04-24 20:23 49.25121 13.22576 39125 ft 480 kts 110°
2026-04-24 20:24 49.22721 13.32101 39136 ft 480 kts 111°
2026-04-24 20:24 49.20171 13.41535 39135 ft 480 kts 112°
2026-04-24 20:25 49.17584 13.50932 39125 ft 479 kts 112°
2026-04-24 20:25 49.16302 13.55611 38856 ft 477 kts 112°
2026-04-24 20:25 49.15028 13.60276 38228 ft 476 kts 112°
2026-04-24 20:26 49.13759 13.64943 37549 ft 475 kts 112°
2026-04-24 20:26 49.12497 13.69596 37163 ft 474 kts 112°
2026-04-24 20:26 49.09985 13.78847 37118 ft 476 kts 112°
2026-04-24 20:27 49.07437 13.88175 37112 ft 476 kts 112°
2026-04-24 20:27 49.04868 13.97489 37114 ft 476 kts 112°
2026-04-24 20:28 49.02715 14.05288 37107 ft 477 kts 112°
2026-04-24 20:28 49.00137 14.14586 37114 ft 477 kts 112°
2026-04-24 20:29 48.98844 14.19237 36977 ft 478 kts 112°
2026-04-24 20:29 48.97549 14.23888 36715 ft 477 kts 112°
2026-04-24 20:29 48.96251 14.28536 36454 ft 477 kts 112°
2026-04-24 20:29 48.94820 14.33087 36194 ft 478 kts 119°
2026-04-24 20:30 48.92996 14.37300 35776 ft 479 kts 127°
2026-04-24 20:30 48.90972 14.41363 34865 ft 484 kts 127°
2026-04-24 20:30 48.88917 14.45425 33995 ft 487 kts 128°
2026-04-24 20:30 48.86828 14.49520 32966 ft 492 kts 128°
2026-04-24 20:31 48.84725 14.53636 31960 ft 495 kts 128°
2026-04-24 20:31 48.82607 14.57791 30959 ft 499 kts 127°
2026-04-24 20:31 48.80478 14.61974 29878 ft 500 kts 127°
2026-04-24 20:31 48.78407 14.66064 29413 ft 469 kts 127°
2026-04-24 20:32 48.76474 14.69947 29550 ft 458 kts 127°
2026-04-24 20:32 48.74551 14.73749 29822 ft 450 kts 127°
2026-04-24 20:32 48.72643 14.77467 30051 ft 449 kts 128°
2026-04-24 20:32 48.70701 14.81225 30101 ft 458 kts 128°
2026-04-24 20:33 48.66714 14.88930 30097 ft 477 kts 128°
2026-04-24 20:33 48.62600 14.96938 30092 ft 485 kts 127°
2026-04-24 20:34 48.60535 15.01049 29789 ft 482 kts 123°
2026-04-24 20:34 48.58894 15.05450 28761 ft 481 kts 112°
2026-04-24 20:34 48.57850 15.10143 28016 ft 475 kts 102°
2026-04-24 20:34 48.57047 15.14957 27285 ft 471 kts 103°
2026-04-24 20:35 48.55897 15.19559 26609 ft 469 kts 118°
2026-04-24 20:35 48.54019 15.23546 25955 ft 466 kts 128°
2026-04-24 20:35 48.51954 15.27285 25356 ft 463 kts 129°
2026-04-24 20:35 48.49879 15.30998 25118 ft 463 kts 129°
2026-04-24 20:36 48.47814 15.34680 24598 ft 456 kts 129°
2026-04-24 20:36 48.45774 15.38312 24000 ft 452 kts 129°
2026-04-24 20:36 48.43749 15.41908 23354 ft 449 kts 129°
2026-04-24 20:36 48.41737 15.45477 22678 ft 445 kts 129°
2026-04-24 20:37 48.39743 15.49013 22027 ft 441 kts 129°
2026-04-24 20:37 48.37762 15.52516 21409 ft 438 kts 129°
2026-04-24 20:37 48.35797 15.55991 20808 ft 434 kts 129°
2026-04-24 20:37 48.33863 15.59453 20215 ft 431 kts 127°
2026-04-24 20:38 48.32061 15.63026 19631 ft 428 kts 125°
2026-04-24 20:38 48.30288 15.66597 19091 ft 424 kts 125°
2026-04-24 20:38 48.28527 15.70131 18548 ft 421 kts 125°
2026-04-24 20:38 48.26775 15.73639 17950 ft 419 kts 125°
2026-04-24 20:39 48.25031 15.77121 17384 ft 416 kts 125°
2026-04-24 20:39 48.23301 15.80567 16831 ft 412 kts 125°
2026-04-24 20:39 48.21579 15.83987 16301 ft 409 kts 125°
2026-04-24 20:39 48.19866 15.87379 15767 ft 406 kts 126°
2026-04-24 20:40 48.18176 15.90743 15320 ft 401 kts 125°
2026-04-24 20:40 48.16512 15.94074 14827 ft 398 kts 124°
2026-04-24 20:40 48.15109 15.97600 14330 ft 393 kts 116°
2026-04-24 20:40 48.13842 16.01219 13837 ft 391 kts 115°
2026-04-24 20:41 48.12676 16.04567 13322 ft 389 kts 115°
2026-04-24 20:41 48.11428 16.08161 13063 ft 389 kts 115°
2026-04-24 20:41 48.10180 16.11749 13062 ft 389 kts 115°
2026-04-24 20:41 48.08932 16.15336 13061 ft 389 kts 115°
2026-04-24 20:42 48.07689 16.18914 12728 ft 385 kts 115°
2026-04-24 20:42 48.06442 16.22500 12133 ft 383 kts 115°
2026-04-24 20:42 48.05216 16.26018 11595 ft 381 kts 115°
2026-04-24 20:42 48.03998 16.29516 11064 ft 377 kts 115°
2026-04-24 20:43 48.02808 16.32928 10932 ft 363 kts 115°
2026-04-24 20:43 48.01660 16.36202 10811 ft 349 kts 115°
2026-04-24 20:43 48.00550 16.39357 10688 ft 337 kts 115°
2026-04-24 20:43 47.99475 16.42402 10569 ft 326 kts 115°
2026-04-24 20:44 47.98431 16.45350 10449 ft 316 kts 115°
2026-04-24 20:44 47.97420 16.48196 10328 ft 306 kts 115°
2026-04-24 20:44 47.96436 16.50957 10206 ft 296 kts 115°
2026-04-24 20:44 47.95480 16.53623 10088 ft 287 kts 115°
2026-04-24 20:45 47.94548 16.56214 9931 ft 280 kts 115°
2026-04-24 20:45 47.93631 16.58760 9655 ft 278 kts 115°
2026-04-24 20:45 47.92886 16.61381 9349 ft 272 kts 100°
2026-04-24 20:45 47.92506 16.64129 8998 ft 270 kts 96°
2026-04-24 20:46 47.92185 16.66882 8648 ft 269 kts 95°
2026-04-24 20:46 47.91873 16.69625 8315 ft 268 kts 96°
2026-04-24 20:46 47.91569 16.72355 7983 ft 266 kts 96°
2026-04-24 20:46 47.91425 16.75069 7652 ft 259 kts 77°
2026-04-24 20:47 47.91857 16.77631 7315 ft 253 kts 67°
2026-04-24 20:47 47.92402 16.80077 7173 ft 243 kts 65°
2026-04-24 20:47 47.92965 16.82348 6969 ft 229 kts 54°
2026-04-24 20:47 47.94015 16.83956 6639 ft 212 kts 23°
2026-04-24 20:48 47.95342 16.84869 6376 ft 208 kts 11°
2026-04-24 20:48 47.96735 16.84853 6115 ft 195 kts 336°
2026-04-24 20:48 47.97937 16.83938 5842 ft 195 kts 327°
2026-04-24 20:48 47.99065 16.82876 5584 ft 194 kts 326°
2026-04-24 20:49 48.00173 16.81796 5419 ft 188 kts 326°
2026-04-24 20:49 48.01279 16.80704 5069 ft 192 kts 326°
2026-04-24 20:49 48.02393 16.79589 4815 ft 193 kts 326°
2026-04-24 20:49 48.03517 16.78452 4543 ft 193 kts 326°
2026-04-24 20:50 48.04485 16.77088 4274 ft 193 kts 304°
2026-04-24 20:50 48.05102 16.75297 4048 ft 192 kts 298°
2026-04-24 20:50 48.05679 16.73527 3630 ft 194 kts 298°
2026-04-24 20:50 48.06289 16.71669 3104 ft 201 kts 298°
2026-04-24 20:51 48.06872 16.69885 2968 ft 185 kts 298°
2026-04-24 20:51 48.07431 16.68149 2333 ft 184 kts 298°
2026-04-24 20:51 48.07980 16.66483 1929 ft 172 kts 298°
2026-04-24 20:51 48.08489 16.64942 1710 ft 158 kts 298°
2026-04-24 20:52 48.08955 16.63521 1516 ft 144 kts 298°
2026-04-24 20:52 48.09380 16.62224 1325 ft 139 kts 298°
2026-04-24 20:52 48.09803 16.60932 1145 ft 137 kts 297°
2026-04-24 20:52 48.10221 16.59654 954 ft 136 kts 296°
2026-04-24 20:53 48.10638 16.58379 779 ft 137 kts 295°
2026-04-24 20:53 48.11043 16.57127 624 ft 132 kts 295°
2026-04-24 20:53 48.11311 16.56322 612 ft 56 kts 296°
2026-04-24 20:53 48.11452 16.55894 618 ft 44 kts 295°
2026-04-24 20:54 48.11572 16.55520 620 ft 33 kts 297°
2026-04-24 20:54 48.11707 16.55274 616 ft 29 kts 317°
2026-04-24 20:54 48.11824 16.55149 618 ft 11 kts 340°
2026-04-24 20:54 48.11844 16.55140 611 ft 0 kts 352°
2026-04-24 20:55 48.11852 16.55140 618 ft 7 kts 359°
2026-04-24 20:56 48.11878 16.55220 612 ft 9 kts 109°
2026-04-24 20:56 48.11842 16.55330 616 ft 14 kts 116°
2026-04-24 20:56 48.11804 16.55451 609 ft 12 kts 114°
2026-04-24 20:56 48.11784 16.55514 611 ft 0 kts 117°
2026-04-24 20:57 48.11780 16.55525 620 ft 4 kts 117°
2026-04-24 20:57 48.11744 16.55629 618 ft 14 kts 116°
2026-04-24 20:57 48.11698 16.55770 623 ft 18 kts 116°
2026-04-24 20:57 48.11648 16.55927 609 ft 16 kts 115°
2026-04-24 20:58 48.11592 16.56105 619 ft 19 kts 113°
2026-04-24 20:58 48.11642 16.56225 621 ft 13 kts 39°
2026-04-24 20:58 48.11717 16.56287 609 ft 12 kts 25°
2026-04-24 20:58 48.11759 16.56339 614 ft 2 kts 65°
2026-04-24 20:59 48.11751 16.56392 619 ft 16 kts 122°
2026-04-24 20:59 48.11701 16.56546 620 ft 12 kts 116°
2026-04-24 20:59 48.11667 16.56657 614 ft 12 kts 116°
2026-04-24 20:59 48.11618 16.56804 619 ft 15 kts 115°
2026-04-24 21:00 48.11639 16.56875 616 ft 8 kts 22°
2026-04-24 21:00 48.11666 16.56894 609 ft 0 kts 25°
2026-04-24 21:00 48.11674 16.56900 613 ft 0 kts 25°
2026-04-24 21:00 48.11674 16.56899 613 ft 0 kts 25°